Simultaneous Nadir Overpasses (SNOs) Predictions

Prediction of SNOs between AQUA and METOP-B Satellite Orbit:

Table of predicted SNOs for the next 14.0 days since TLE Epoch: 8/17/2024
Index Date (AQUA) Time (AQUA) Lat,Lon (AQUA) SZA (AQUA ) Date (METOP-B) Time (METOP-B) Lat,Lon (METOP-B) SZA (METOP-B ) Distance(km) Time Diff (sec)
1 08/18/2024 12:34:21 -76.10, 169.13 116.79 08/18/2024 12:33:31 -76.08, 169.08 116.80 2.33 50
2 08/18/2024 13:23:44 76.14, -23.36 63.27 08/18/2024 13:24:10 76.13, -23.43 63.26 2.55 26
3 08/21/2024 03:54:43 76.11, 119.06 64.09 08/21/2024 03:54:30 76.12, 118.92 64.10 3.69 13
4 08/21/2024 04:44:05 -76.17, -73.49 115.83 08/21/2024 04:45:10 -76.19, -73.49 115.82 1.95 65
5 08/23/2024 18:25:40 76.11, -98.65 64.97 08/23/2024 18:24:49 76.12, -98.65 64.99 0.95 51
6 08/23/2024 19:15:02 -76.18, 68.81 114.95 08/23/2024 19:15:30 -76.15, 68.78 114.98 2.79 28
7 08/26/2024 08:56:24 75.62, 45.19 65.37 08/26/2024 08:55:19 75.59, 42.02 65.38 87.66 65
8 08/26/2024 09:45:56 -76.18,-148.86 114.06 08/26/2024 09:45:48 -76.19,-148.71 114.05 3.98 8
9 08/26/2024 10:35:19 76.23, 18.61 66.02 08/26/2024 10:36:27 76.23, 18.76 66.01 4.09 68
10 08/29/2024 00:16:46 -76.17, -6.49 113.15 08/29/2024 00:16:06 -76.15, -6.45 113.17 2.65 40
11 08/29/2024 01:06:08 76.18, 161.13 66.88 08/29/2024 01:06:45 76.18, 161.02 66.89 2.84 37



Historial Predications of SNOs between AQUA and METOP-B
